Location: İstanbul
(41.0082°N, 28.9784°E)
Time: 05:16:12
(UTC+03:00)

BlueWalker 3 - Visible Passes

Search period start: 14 April 2024 00:00
Search period end: 24 April 2024 00:00
Orbit: 485 x 496 km, 53.2° (Epoch: 13 April)

Date Brightness Start Highest point End Pass type
(mag) Time Alt. Az. Time Alt. Az. Time Alt. Az.
14 Apr 4.6 03:23:38 16° N 03:24:24 17° NNE 03:27:00 10° ENE visible
14 Apr 2.5 04:59:32 10° NW 05:03:19 57° NE 05:07:04 10° ESE visible
15 Apr 4.8 03:00:34 16° NNE 03:00:34 16° NNE 03:02:26 10° ENE visible
15 Apr 2.6 04:35:03 10° NW 04:38:48 55° NE 04:42:33 10° ESE visible
15 Apr 4.0 21:34:36 10° SSW 21:35:30 16° SSW 21:35:30 16° SSW visible
16 Apr 2.6 04:12:28 27° NNW 04:14:17 52° NE 04:18:01 10° ESE visible
16 Apr 3.2 05:49:22 10° W 05:52:16 21° SW 05:55:09 10° S visible
16 Apr 2.2 21:10:08 10° SSW 21:13:44 42° SE 21:14:53 32° E visible
16 Apr 4.6 22:48:38 10° W 22:49:30 15° W 22:49:30 15° W visible
17 Apr 3.0 03:50:34 41° ENE 03:50:34 41° ENE 03:53:29 10° ESE visible
17 Apr 3.1 05:25:09 12° W 05:27:46 22° SW 05:30:43 10° S visible
17 Apr 2.3 20:45:39 10° SSW 20:49:13 40° SE 20:52:49 10° ENE visible
17 Apr 3.6 22:24:04 10° W 22:27:31 32° NNW 22:28:15 29° N visible
18 Apr 3.2 05:04:04 21° SSW 05:04:04 21° SSW 05:06:17 10° S visible
18 Apr 2.4 20:21:09 10° SSW 20:24:41 38° SE 20:28:15 10° ENE visible
18 Apr 3.6 21:59:28 10° W 22:02:57 33° NNW 22:06:12 11° NE visible
18 Apr 5.2 23:40:01 10° NW 23:40:43 12° NNW 23:40:43 12° NNW visible
19 Apr 3.6 21:34:53 10° W 21:38:23 34° NNW 21:41:54 10° NE visible
19 Apr 4.9 23:15:24 10° NW 23:17:33 14° N 23:17:58 14° N visible
20 Apr 3.5 21:10:16 10° W 21:13:48 35° NNW 21:17:21 10° NE visible
20 Apr 4.9 22:50:45 10° NW 22:52:56 14° N 22:54:48 11° NNE visible
21 Apr 3.5 20:45:39 10° W 20:49:13 36° NNW 20:52:47 10° NE visible
21 Apr 4.9 22:26:07 10° NW 22:28:19 15° N 22:30:32 10° NNE visible
22 Apr 5.3 00:05:33 10° NNW 00:05:47 11° NNW 00:05:47 11° NNW visible
22 Apr 3.4 20:21:01 10° W 20:24:36 38° NNW 20:28:12 10° NE visible
22 Apr 4.8 22:01:27 10° NW 22:03:42 15° N 22:05:56 10° NNE visible
22 Apr 5.0 23:40:57 10° NNW 23:42:09 14° N 23:42:09 14° N visible
23 Apr 4.8 21:36:47 10° NW 21:39:03 15° NNW 21:41:20 10° NNE visible
23 Apr 4.7 23:16:21 10° NNW 23:18:25 15° N 23:18:25 15° N visible
